Location: Newark
(51.3000°N, 178.2000°W)
Time: 00:39:25
(UTC+00:00)

ISS - Pass Details

Date: 15 May 2021
Orbit: 417 x 422 km, 51.6° (Epoch: 15 June)

Event Time Altitude Azimuth Distance (km) Brightness Sun altitude
Rises 12:24:57 0° 276° (W) 2,371 0.0 -19.3°
Reaches altitude 10° 12:27:03 10° 277° (W) 1,507 -1.0 -19.2°
Maximum altitude 12:30:26 87° 5° (N) 428 -3.8 -19.1°
Drops below altitude 10° 12:33:50 10° 97° (E) 1,508 -0.9 -19.0°
Sets 12:35:56 0° 98° (E) 2,373 0.1 -19.0°
